[[{"header":{"parameterUnit":"m.s-1","parameterCategory":1,"la1":30.2991,"la2":30.254,"lo1":-89.0895,"lo2":-89.0444,"dy":0.0017,"dx":0.0017,"nx":28,"ny":28,"refTime":"2024-07-03T21:00:00:Z","depth":0,"parameterNumber":2,"parameterNumberName":"U-component_of_WINDS"},"data":[0,0,0,0,0,0,0,0,0,0,0,0,0,0,0,0,0,0,0,0,0,0,0,0,0,0,0,0,0,0,0,0,0,0,0,0,0,0,0,0,0,0,0,0,0,0,0,0,0,0,0,0,0,0,0,0,0,0,3.0034,3.0035,0,3.0115,3.0116,3.0117,3.0119,3.0118,3.0117,3.0116,3.0202,3.0206,3.0209,0,0,0,0,0,0,0,0,0,0,0,0,0,2.9884,2.9887,3.0034,3.0035,3.0036,3.0115,3.0116,3.0117,3.0119,3.0118,3.0117,3.0115,3.0201,3.0205,3.0209,0,0,0,0,0,0,0,0,0,0,0,0,0,2.9956,2.9888,3.0034,3.0046,3.0048,3.0115,3.0116,3.0118,3.0119,3.0118,3.0116,3.0115,3.02,3.0205,3.021,3.027,0,0,3.0225,3.0227,0,0,0,0,0,0,0,0,2.9952,2.9961,3.0044,3.0046,3.0048,3.0105,3.0095,3.0169,3.012,3.0092,3.0116,3.0114,3.0172,3.0179,3.0197,3.0274,3.0278,3.0225,3.0228,3.023,3.0231,0,0,0,0,0,0,0,2.9947,2.9958,3.0066,3.0045,3.0047,3.0049,3.0058,3.0109,3.014,3.0095,3.0095,3.0104,3.0173,3.0193,3.0199,3.0279,3.0225,3.0229,3.0232,3.0234,3.0411,3.0412,0,0,0,0,0,0,2.9939,2.9953,3.0064,3.0069,2.9995,3.0053,3.0063,3.0089,3.0139,3.0145,3.0106,3.0104,3.0185,3.0194,3.0202,3.0276,3.023,3.0235,3.0237,3.0409,3.0411,3.0413,0,0,0,0,0,0,2.9935,2.9948,3.006,3.0011,3.0026,3.0057,3.0086,3.0091,3.0111,3.0147,3.0153,3.012,3.0184,3.0196,3.0253,3.0279,3.0237,3.0241,3.0407,3.0409,3.0412,3.0424,0,0,0,0,0,0,2.9931,2.9947,2.9969,3.0012,3.0028,3.0108,3.0088,3.0094,3.0119,3.0118,3.0163,3.0169,3.0184,3.0246,3.0258,3.0285,3.0245,3.0405,3.0408,3.0411,3.0422,3.0427,3.0432,0,0,0,0,0,2.9926,2.997,2.9971,2.9984,3.0057,3.011,3.012,3.0135,3.0121,3.0144,3.0168,3.0167,3.0275,3.0252,3.0265,3.0294,3.0403,3.0407,3.0411,3.0419,3.0426,3.0431,0,0,0,0,0,0,2.9931,2.9976,2.9977,3.0036,3.0069,3.011,3.0139,3.0142,3.018,3.0177,3.0197,3.0207,3.0264,3.0286,3.0259,3.0356,3.0337,3.0344,3.0339,3.0346,3.0351,3.0343,3.0249,0,0,0,0,0,2.9939,2.9978,3.0016,3.0064,3.0081,3.0108,3.0131,3.0141,3.0176,3.019,3.0218,3.0253,3.0295,3.0322,3.0363,3.0426,3.0435,3.0453,3.0458,3.0462,3.0467,3.0501,3.0509,3.0426,3.0426,3.0426,0,0,2.9956,2.9985,3.0009,3.0066,3.0093,3.0133,3.0119,3.0162,3.0193,3.0197,3.0252,3.0274,3.0315,3.0376,3.0404,3.0395,3.0492,3.0467,3.0469,3.0472,3.0506,3.0514,3.0521,3.0429,3.0428,3.0428,0,0,3.0007,3.0033,3.0076,3.0104,3.0144,3.0162,3.0172,3.0214,3.0228,3.0284,3.0288,3.0326,3.0397,3.0426,3.045,3.0514,3.0514,3.0527,3.0552,3.0586,3.0592,3.0598,3.062,3.0627,3.0532,3.0532,3.0532,0,3.0023,3.0082,3.0099,3.0142,3.0167,3.0173,3.0218,3.0244,3.0296,3.0313,3.0304,3.0394,3.0422,3.0489,3.0504,3.0524,3.0537,3.052,3.059,3.0596,3.0601,3.0622,3.0631,3.0533,3.0533,3.0533,3.0533,0,3.01,3.0141,3.0172,3.0221,3.025,3.0294,3.0318,3.0346,3.0354,3.0373,3.043,3.0464,3.0512,3.0529,3.0537,3.0598,3.0591,3.0585,3.0567,3.061,3.063,3.0638,3.0535,3.0535,3.0534,3.0534,0,0,3.0153,3.0212,3.0223,3.0245,3.0291,3.0324,3.0369,3.0415,3.0438,3.0475,3.0512,3.0574,3.0569,3.0596,3.0608,3.0638,3.0686,3.0629,3.063,3.0637,3.0754,3.0756,3.0765,3.0688,3.0689,3.0691,3.075,0,3.0208,3.0286,3.0303,3.037,3.0409,3.0417,3.0456,3.0489,3.0509,3.0546,3.0569,3.0611,3.0602,3.0618,3.0649,3.0673,3.0709,3.067,3.0723,3.0725,3.071,3.0775,3.0778,3.0832,3.0758,3.0759,3.076,0,3.0281,3.0318,3.0389,3.0431,3.0448,3.0482,3.0526,3.0561,3.0599,3.0612,3.0643,3.0652,3.07,3.0681,3.0748,3.072,3.0744,3.076,3.0762,3.0766,3.0743,3.0779,3.085,3.0857,3.0773,3.0772,3.0771,0,3.0311,3.038,3.0431,3.045,3.05,3.0524,3.0546,3.0583,3.061,3.0649,3.0666,3.0711,3.0735,3.0769,3.0791,3.0775,3.0856,3.0838,3.0867,3.0866,3.0882,3.088,3.0955,3.09,3.09,3.09,3.09,0,3.0369,3.0412,3.0445,3.0476,3.0525,3.0546,3.0594,3.0616,3.0649,3.0686,3.0697,3.0731,3.0758,3.0796,3.0814,3.0866,3.0878,3.0889,3.0893,3.0887,3.0885,3.0901,3.0897,3.0902,3.0902,3.0901,3.0901,0,3.0409,3.0433,3.049,3.0533,3.0545,3.0579,3.0616,3.0647,3.0668,3.0715,3.0727,3.076,3.0806,3.0831,3.0889,3.0901,3.0959,3.0962,3.0945,3.0946,3.0973,3.097,3.1059,3.1071,3.101,3.1011,3.1011,0,3.0443,3.0476,3.0523,3.0548,3.057,3.061,3.0637,3.066,3.0688,3.0735,3.0761,3.0807,3.0845,3.0919,3.0948,3.0993,3.0996,3.1024,3.1003,3.0996,3.0995,3.0991,3.0995,3.1027,3.1028,3.1028,3.1029,0,3.05,3.0511,3.0549,3.0592,3.0624,3.0659,3.0694,3.0714,3.0743,3.0774,3.082,3.085,3.0909,3.0955,3.1002,3.1027,3.1032,3.1036,3.1044,3.1037,3.1026,3.1031,3.0953,3.1033,3.1032,3.1032,3.1032,3.1032,3.0538,3.0567,3.0605,3.0647,3.0676,3.0709,3.074,3.0765,3.0804,3.0853,3.0865,3.0914,3.0953,3.1017,3.1043,3.1082,3.1077,3.109,3.1093,3.1095,3.1095,3.1021,3.1091,3.1091,3.1091,3.1091,3.1091,0,3.0594,3.0619,3.0658,3.0706,3.074,3.0743,3.0782,3.081,3.0853,3.0888,3.0926,3.098,3.1025,3.1059,3.1105,3.113,3.1134,3.1141,3.1139,3.1144,3.1098,3.1085,3.1137,3.1137,3.1137,3.1137,3.1137,3.1137,3.0627,3.0677,3.0693,3.0758,3.0783,3.083,3.0852,3.0883,3.0911,3.0971,3.1008,3.103,3.1065,3.1114,3.1156,3.1165,3.1181,3.1187,3.1197,3.1152,3.1147,3.1142,3.113,3.1191,3.1191,3.1239,3.124,3.124]},{"header":{"parameterUnit":"m.s-1","parameterCategory":1,"la1":30.2991,"la2":30.254,"lo1":-89.0895,"lo2":-89.0444,"dy":0.0017,"dx":0.0017,"nx":28,"ny":28,"refTime":"2024-07-03T21:00:00:Z","depth":0,"parameterNumber":3,"parameterNumberName":"V-component_of_WINDS"},"data":[0,0,0,0,0,0,0,0,0,0,0,0,0,0,0,0,0,0,0,0,0,0,0,0,0,0,0,0,0,0,0,0,0,0,0,0,0,0,0,0,0,0,0,0,0,0,0,0,0,0,0,0,0,0,0,0,0,0,4.7588,4.7589,0,4.7697,4.7698,4.7699,4.7728,4.7727,4.7727,4.7726,4.7828,4.7831,4.7834,0,0,0,0,0,0,0,0,0,0,0,0,0,4.7392,4.7396,4.7588,4.7589,4.759,4.7697,4.7698,4.77,4.7728,4.7727,4.7727,4.7726,4.7827,4.7831,4.7834,0,0,0,0,0,0,0,0,0,0,0,0,0,4.7487,4.7397,4.7587,4.7618,4.7622,4.7696,4.7698,4.77,4.7728,4.7727,4.7726,4.7726,4.7825,4.783,4.7835,4.7884,0,0,4.785,4.7852,0,0,0,0,0,0,0,0,4.7481,4.7494,4.7612,4.7616,4.762,4.7698,4.7667,4.7762,4.7729,4.7687,4.7726,4.7725,4.7785,4.7793,4.7815,4.7889,4.7894,4.7851,4.7854,4.7856,4.7857,0,0,0,0,0,0,0,4.7475,4.7489,4.7631,4.7613,4.7619,4.7622,4.7634,4.7685,4.774,4.7691,4.7693,4.7706,4.7787,4.781,4.7818,4.7895,4.785,4.7855,4.7858,4.786,4.8012,4.8013,0,0,0,0,0,0,4.7465,4.7484,4.7627,4.7634,4.7547,4.7626,4.764,4.7674,4.7739,4.7749,4.7707,4.7707,4.7802,4.7812,4.7821,4.7882,4.7856,4.786,4.7863,4.8011,4.8012,4.8013,0,0,0,0,0,0,4.746,4.7477,4.7623,4.756,4.7578,4.7631,4.7668,4.7677,4.77,4.7752,4.776,4.7722,4.7802,4.7814,4.7869,4.7886,4.7862,4.7867,4.8009,4.8011,4.8013,4.8004,0,0,0,0,0,0,4.7455,4.7475,4.7498,4.756,4.7582,4.7672,4.767,4.7679,4.771,4.7711,4.7768,4.7776,4.7802,4.7861,4.7874,4.7892,4.7871,4.8008,4.801,4.8012,4.8003,4.8005,4.8007,0,0,0,0,0,4.7448,4.7489,4.7499,4.7516,4.7611,4.7673,4.7685,4.7717,4.7711,4.7732,4.7765,4.7774,4.7882,4.7866,4.7881,4.7901,4.8007,4.801,4.8012,4.8002,4.8005,4.8007,0,0,0,0,0,0,4.7424,4.7498,4.7509,4.7573,4.7617,4.7677,4.7705,4.7719,4.7762,4.7761,4.7796,4.7808,4.7859,4.7886,4.7867,4.7951,4.7944,4.795,4.7932,4.7935,4.7937,4.7929,4.7875,0,0,0,0,0,4.7427,4.7474,4.7535,4.7585,4.7607,4.7652,4.768,4.7701,4.7746,4.7763,4.78,4.7841,4.7883,4.7911,4.7953,4.8007,4.8018,4.8028,4.803,4.8031,4.8035,4.8063,4.8067,4.8021,4.8021,4.8021,0,0,4.7432,4.7478,4.7505,4.7581,4.7618,4.7662,4.7667,4.7714,4.7747,4.777,4.7824,4.7852,4.7899,4.7953,4.7978,4.7976,4.805,4.8034,4.8035,4.8038,4.8066,4.807,4.8074,4.8023,4.8023,4.8022,0,0,4.7464,4.7505,4.7551,4.7587,4.7643,4.7673,4.7684,4.7743,4.7763,4.7819,4.7836,4.7873,4.7947,4.7979,4.8005,4.8048,4.8057,4.806,4.807,4.8097,4.8101,4.8104,4.8117,4.8122,4.8064,4.8064,4.8064,0,4.7462,4.7534,4.7571,4.7618,4.7649,4.7676,4.7719,4.7752,4.7817,4.7836,4.7834,4.7927,4.796,4.8021,4.8031,4.8052,4.8063,4.8054,4.8098,4.8102,4.8105,4.8118,4.8123,4.8064,4.8064,4.8064,4.8064,0,4.7528,4.7577,4.7606,4.7672,4.7707,4.7752,4.7792,4.7822,4.7839,4.7868,4.7922,4.7963,4.8014,4.803,4.8046,4.8092,4.8089,4.8092,4.8086,4.8109,4.8121,4.8127,4.8064,4.8064,4.8064,4.8064,0,0,4.7548,4.7634,4.7644,4.7674,4.7737,4.7773,4.7818,4.787,4.7894,4.7937,4.7973,4.8035,4.8038,4.8067,4.8087,4.8111,4.8139,4.8111,4.8112,4.8113,4.8189,4.8186,4.8191,4.8147,4.8148,4.8149,4.8185,0,4.7586,4.7671,4.7705,4.7772,4.7816,4.7841,4.7879,4.7919,4.7947,4.7985,4.8014,4.8056,4.8058,4.8076,4.8101,4.8131,4.8155,4.8129,4.8177,4.8178,4.8164,4.8198,4.8195,4.8228,4.819,4.8191,4.8192,0,4.7643,4.769,4.7763,4.7819,4.7839,4.7873,4.7923,4.796,4.8005,4.8023,4.8056,4.8075,4.8118,4.811,4.8169,4.815,4.8171,4.8189,4.8191,4.8195,4.8186,4.8202,4.8239,4.8243,4.82,4.82,4.8199,0,4.7648,4.7729,4.7783,4.7807,4.7875,4.7898,4.7927,4.7972,4.8,4.8042,4.8061,4.8106,4.813,4.8163,4.8192,4.8184,4.8247,4.8242,4.826,4.8259,4.8271,4.827,4.831,4.8287,4.8287,4.8287,4.8287,0,4.7687,4.7729,4.7786,4.7819,4.7866,4.7903,4.7947,4.7977,4.8016,4.8052,4.8075,4.8107,4.8144,4.818,4.8203,4.8246,4.8257,4.8271,4.8276,4.8268,4.8266,4.8281,4.8279,4.8289,4.8288,4.8288,4.8288,0,4.77,4.774,4.78,4.786,4.7876,4.7907,4.7957,4.7987,4.8016,4.8061,4.8073,4.8117,4.816,4.8193,4.8248,4.8263,4.8309,4.8315,4.8295,4.8297,4.8313,4.8311,4.8364,4.8372,4.8345,4.8345,4.8345,0,4.7721,4.7755,4.7819,4.7847,4.7876,4.792,4.795,4.7986,4.8016,4.8069,4.8092,4.8138,4.8177,4.8245,4.8279,4.8321,4.8327,4.8343,4.8333,4.8324,4.8325,4.8322,4.8325,4.8343,4.8343,4.8344,4.8344,0,4.7754,4.7772,4.7817,4.7868,4.7904,4.7945,4.7986,4.8006,4.8049,4.8081,4.8128,4.8158,4.8215,4.8259,4.8305,4.833,4.8343,4.8347,4.8353,4.8345,4.8331,4.8337,4.8297,4.8345,4.8345,4.8345,4.8345,4.8345,4.7771,4.7802,4.7852,4.79,4.7935,4.7973,4.8005,4.8038,4.8079,4.8131,4.8149,4.8196,4.8237,4.83,4.8326,4.8361,4.8361,4.837,4.8372,4.8373,4.8372,4.8327,4.8369,4.8369,4.8369,4.8369,4.8369,0,4.7803,4.7837,4.7881,4.794,4.7977,4.799,4.8035,4.8064,4.8107,4.8146,4.8184,4.8236,4.8279,4.8317,4.836,4.838,4.8387,4.839,4.8388,4.8394,4.8371,4.836,4.8384,4.8384,4.8384,4.8384,4.8384,4.8384,4.7825,4.7877,4.7901,4.7969,4.8002,4.8051,4.8076,4.8109,4.8141,4.8199,4.8236,4.8262,4.83,4.8346,4.8384,4.8394,4.8408,4.8409,4.842,4.8397,4.8395,4.8394,4.8384,4.8412,4.8412,4.844,4.844,4.844]}]]